Simultaneous Nadir Overpasses (SNOs) Predictions

Prediction of SNOs between GOES-16 and METOP-B Satellite Orbit:

Table of predicted SNOs for the next 14.0 days since TLE Epoch: 6/24/2023
Index Date Time (GOES-16) GOES-16 Lat,Lon METOP-B Lat,Lon Distance(km) Time Diff (sec)
1 06/25/2023 02:38:44 0.01, -75.20 -0.39, -76.93 197.73 80
2 06/26/2023 02:15:25 0.01, -75.20 0.75, -71.94 372.07 80
3 06/27/2023 14:36:55 -0.01, -75.22 0.29, -76.50 145.95 80
4 06/28/2023 14:13:36 -0.01, -75.23 -0.86, -71.51 424.12 80
5 06/30/2023 02:35:15 0.01, -75.24 -0.17, -76.11 98.45 80
6 07/01/2023 02:11:55 0.01, -75.25 0.93, -71.11 471.59 80
7 07/02/2023 14:33:25 -0.01, -75.26 0.10, -75.66 46.43 80
8 07/05/2023 02:29:05 0.02, -75.28 0.04, -75.27 2.41 80
9 07/07/2023 14:27:15 -0.03, -75.32 -0.12, -74.83 55.03 80
